[[{"header":{"parameterUnit":"m.s-1","parameterCategory":1,"la1":30.2991,"la2":30.254,"lo1":-89.0895,"lo2":-89.0444,"dy":0.0017,"dx":0.0017,"nx":28,"ny":28,"refTime":"2024-08-28T21:00:00:Z","depth":0,"parameterNumber":2,"parameterNumberName":"U-component_of_WINDS"},"data":[0,0,0,0,0,0,0,0,0,0,0,0,0,0,0,0,0,0,0,0,0,0,0,0,0,0,0,0,0,0,0,0,0,0,0,0,0,0,0,0,0,0,0,0,0,0,0,0,0,0,0,0,0,0,0,0,0,0,-2.3812,-2.3812,0,-2.3831,-2.3831,-2.3831,-2.3787,-2.3786,-2.3785,-2.3783,-2.3802,-2.3803,-2.3805,0,0,0,0,0,0,0,0,0,0,0,0,0,-2.3738,-2.374,-2.3812,-2.3812,-2.3813,-2.3831,-2.3831,-2.3831,-2.3788,-2.3786,-2.3784,-2.3783,-2.3801,-2.3803,-2.3805,0,0,0,0,0,0,0,0,0,0,0,0,0,-2.3765,-2.374,-2.3812,-2.3793,-2.3791,-2.3831,-2.3831,-2.3831,-2.3788,-2.3786,-2.3784,-2.3782,-2.38,-2.3803,-2.3805,-2.3864,0,0,-2.3814,-2.3815,0,0,0,0,0,0,0,0,-2.3763,-2.3768,-2.3796,-2.3794,-2.3793,-2.3805,-2.3811,-2.3842,-2.3788,-2.3789,-2.3783,-2.3781,-2.3804,-2.3806,-2.3814,-2.3864,-2.3865,-2.3814,-2.3816,-2.3817,-2.3817,0,0,0,0,0,0,0,-2.3762,-2.3767,-2.3819,-2.3796,-2.3794,-2.3783,-2.3785,-2.3817,-2.3808,-2.3789,-2.3786,-2.3789,-2.3803,-2.3812,-2.3815,-2.3866,-2.3814,-2.3816,-2.3818,-2.3819,-2.3963,-2.3966,0,0,0,0,0,0,-2.3762,-2.3765,-2.3819,-2.382,-2.3773,-2.3786,-2.3788,-2.3803,-2.3808,-2.3806,-2.379,-2.3787,-2.3808,-2.3811,-2.3815,-2.3882,-2.3817,-2.3819,-2.3821,-2.3961,-2.3964,-2.3966,0,0,0,0,0,0,-2.3761,-2.3767,-2.3818,-2.3792,-2.3797,-2.379,-2.3807,-2.3804,-2.3813,-2.3809,-2.3807,-2.3801,-2.3807,-2.3811,-2.3852,-2.3882,-2.382,-2.3823,-2.3959,-2.3962,-2.3965,-2.4018,0,0,0,0,0,0,-2.3759,-2.3767,-2.3789,-2.3793,-2.3799,-2.3855,-2.3809,-2.3806,-2.3818,-2.3813,-2.3818,-2.3817,-2.3806,-2.3848,-2.3854,-2.3885,-2.3825,-2.3956,-2.396,-2.3964,-2.4014,-2.4023,-2.4031,0,0,0,0,0,-2.3756,-2.3804,-2.3791,-2.3797,-2.3827,-2.3857,-2.386,-2.3846,-2.3821,-2.3843,-2.384,-2.3817,-2.3879,-2.3853,-2.3859,-2.3891,-2.3954,-2.3959,-2.3964,-2.401,-2.4021,-2.4031,0,0,0,0,0,0,-2.3804,-2.3804,-2.3789,-2.3839,-2.3848,-2.3849,-2.3876,-2.3859,-2.3875,-2.387,-2.3851,-2.3853,-2.3896,-2.3898,-2.3869,-2.3947,-2.3912,-2.3918,-2.3945,-2.3955,-2.3964,-2.3962,-2.3827,0,0,0,0,0,-2.382,-2.3845,-2.3843,-2.3887,-2.3893,-2.3884,-2.3897,-2.3885,-2.3894,-2.3897,-2.3897,-2.3906,-2.3927,-2.3942,-2.3961,-2.4014,-2.4014,-2.404,-2.4049,-2.4056,-2.4061,-2.4089,-2.4099,-2.3983,-2.3983,-2.3983,0,0,-2.3854,-2.3857,-2.3874,-2.3897,-2.3903,-2.3928,-2.3888,-2.3916,-2.3935,-2.3901,-2.3939,-2.394,-2.3949,-2.3996,-2.4017,-2.3998,-2.4094,-2.4062,-2.4068,-2.4069,-2.4095,-2.4106,-2.4116,-2.3986,-2.3986,-2.3985,0,0,-2.3928,-2.3934,-2.397,-2.3977,-2.3986,-2.398,-2.3989,-2.3993,-2.3992,-2.403,-2.4005,-2.4027,-2.4064,-2.4071,-2.408,-2.4157,-2.4137,-2.4164,-2.4209,-2.4236,-2.4245,-2.4253,-2.428,-2.4289,-2.417,-2.417,-2.417,0,-2.3969,-2.4007,-2.3991,-2.4022,-2.4033,-2.4004,-2.4041,-2.4048,-2.4063,-2.4071,-2.4051,-2.4097,-2.4101,-2.4148,-2.4167,-2.4176,-2.4185,-2.4163,-2.4245,-2.4253,-2.426,-2.4285,-2.4295,-2.4173,-2.4173,-2.4173,-2.4172,0,-2.4056,-2.4082,-2.4111,-2.4126,-2.414,-2.4174,-2.4163,-2.418,-2.4167,-2.4163,-2.4202,-2.4206,-2.4225,-2.4236,-2.4224,-2.4282,-2.427,-2.4248,-2.4212,-2.4275,-2.4298,-2.4307,-2.4178,-2.4177,-2.4176,-2.4175,0,0,-2.4159,-2.4166,-2.4177,-2.4183,-2.4191,-2.4211,-2.4244,-2.4263,-2.4276,-2.4288,-2.4314,-2.4346,-2.4326,-2.4335,-2.4324,-2.4348,-2.4408,-2.4323,-2.4323,-2.4337,-2.4471,-2.4487,-2.4498,-2.4395,-2.4397,-2.4398,-2.447,0,-2.4232,-2.4287,-2.4274,-2.4329,-2.4352,-2.4326,-2.4354,-2.4362,-2.4359,-2.4379,-2.4376,-2.4399,-2.437,-2.4376,-2.4399,-2.4396,-2.4434,-2.4391,-2.4418,-2.4419,-2.4415,-2.451,-2.4527,-2.4594,-2.4479,-2.448,-2.4482,0,-2.4323,-2.4338,-2.4395,-2.4399,-2.4408,-2.4434,-2.445,-2.447,-2.4478,-2.4474,-2.4486,-2.447,-2.4501,-2.4466,-2.4508,-2.4479,-2.449,-2.449,-2.4492,-2.4493,-2.4453,-2.4512,-2.4616,-2.4625,-2.4496,-2.4495,-2.4494,0,-2.4392,-2.4426,-2.4464,-2.4471,-2.4477,-2.4495,-2.4498,-2.4505,-2.4517,-2.4531,-2.4539,-2.4557,-2.4566,-2.4581,-2.457,-2.4545,-2.4614,-2.4578,-2.4611,-2.4611,-2.4625,-2.4624,-2.473,-2.4635,-2.4635,-2.4635,-2.4634,0,-2.4473,-2.4508,-2.4495,-2.4518,-2.4557,-2.4542,-2.4581,-2.4581,-2.4587,-2.461,-2.4589,-2.461,-2.4595,-2.4616,-2.4608,-2.4644,-2.4649,-2.4646,-2.4643,-2.4647,-2.4647,-2.4653,-2.4647,-2.4637,-2.4637,-2.4636,-2.4636,0,-2.4555,-2.4548,-2.4587,-2.459,-2.4591,-2.462,-2.4622,-2.4643,-2.4639,-2.4668,-2.4674,-2.4668,-2.4691,-2.4682,-2.4706,-2.4701,-2.4746,-2.4738,-2.4743,-2.4741,-2.4774,-2.4771,-2.4886,-2.49,-2.4797,-2.4798,-2.4799,0,-2.4607,-2.4633,-2.4639,-2.4652,-2.4657,-2.468,-2.4692,-2.4679,-2.4692,-2.4704,-2.4724,-2.4745,-2.4761,-2.4799,-2.4796,-2.4815,-2.4806,-2.4845,-2.4808,-2.4811,-2.4805,-2.4803,-2.4805,-2.4852,-2.4853,-2.4854,-2.4855,0,-2.4699,-2.4694,-2.4713,-2.473,-2.4745,-2.4758,-2.477,-2.4782,-2.4769,-2.4786,-2.4809,-2.4821,-2.4846,-2.4867,-2.4883,-2.4886,-2.4869,-2.4867,-2.4875,-2.4879,-2.488,-2.4879,-2.4762,-2.4864,-2.4863,-2.4862,-2.4862,-2.4861,-2.4767,-2.4789,-2.4796,-2.4817,-2.4824,-2.4835,-2.4855,-2.4854,-2.4873,-2.4892,-2.4883,-2.491,-2.4917,-2.4938,-2.4943,-2.4964,-2.4948,-2.4961,-2.4964,-2.4967,-2.497,-2.4878,-2.4967,-2.4967,-2.4966,-2.4966,-2.4966,0,-2.4857,-2.486,-2.488,-2.4896,-2.4913,-2.4895,-2.4906,-2.4921,-2.4945,-2.4954,-2.497,-2.4996,-2.5017,-2.5016,-2.5034,-2.5051,-2.5043,-2.5056,-2.5054,-2.5055,-2.4984,-2.4974,-2.5062,-2.5062,-2.5062,-2.5062,-2.5062,-2.5062,-2.4905,-2.4941,-2.4937,-2.4977,-2.498,-2.5005,-2.5013,-2.5023,-2.503,-2.506,-2.5077,-2.5076,-2.5081,-2.51,-2.5118,-2.5117,-2.5124,-2.514,-2.5136,-2.5069,-2.506,-2.5051,-2.5041,-2.5142,-2.5142,-2.5205,-2.5206,-2.5206]},{"header":{"parameterUnit":"m.s-1","parameterCategory":1,"la1":30.2991,"la2":30.254,"lo1":-89.0895,"lo2":-89.0444,"dy":0.0017,"dx":0.0017,"nx":28,"ny":28,"refTime":"2024-08-28T21:00:00:Z","depth":0,"parameterNumber":3,"parameterNumberName":"V-component_of_WINDS"},"data":[0,0,0,0,0,0,0,0,0,0,0,0,0,0,0,0,0,0,0,0,0,0,0,0,0,0,0,0,0,0,0,0,0,0,0,0,0,0,0,0,0,0,0,0,0,0,0,0,0,0,0,0,0,0,0,0,0,0,3.3486,3.3486,0,3.3538,3.3539,3.3539,3.349,3.3488,3.3486,3.3484,3.3534,3.3537,3.354,0,0,0,0,0,0,0,0,0,0,0,0,0,3.334,3.3343,3.3486,3.3486,3.3487,3.3538,3.3539,3.3539,3.349,3.3488,3.3486,3.3483,3.3533,3.3537,3.354,0,0,0,0,0,0,0,0,0,0,0,0,0,3.3399,3.3344,3.3486,3.3469,3.3468,3.3538,3.3539,3.354,3.3491,3.3488,3.3485,3.3482,3.3532,3.3536,3.3541,3.3629,0,0,3.3555,3.3557,0,0,0,0,0,0,0,0,3.3396,3.3404,3.3471,3.347,3.3469,3.3505,3.3505,3.3569,3.3492,3.3482,3.3484,3.3481,3.3526,3.3531,3.3547,3.3631,3.3633,3.3556,3.3559,3.3561,3.3562,0,0,0,0,0,0,0,3.3392,3.3402,3.3506,3.3472,3.3471,3.3458,3.3463,3.3517,3.352,3.3483,3.3479,3.3486,3.3525,3.3543,3.3548,3.3634,3.3556,3.356,3.3563,3.3565,3.3792,3.3795,0,0,0,0,0,0,3.339,3.3399,3.3505,3.3508,3.3425,3.3463,3.3468,3.3496,3.3519,3.352,3.3489,3.3484,3.3536,3.3543,3.355,3.3654,3.3561,3.3565,3.3568,3.3789,3.3793,3.3796,0,0,0,0,0,0,3.3387,3.34,3.3503,3.3453,3.3465,3.3468,3.35,3.3499,3.3516,3.3524,3.3524,3.3507,3.3534,3.3543,3.361,3.3655,3.3567,3.3571,3.3785,3.379,3.3795,3.3863,0,0,0,0,0,0,3.3383,3.3399,3.3433,3.3454,3.3468,3.3563,3.3503,3.3502,3.3525,3.3519,3.3541,3.3541,3.3533,3.3603,3.3614,3.366,3.3575,3.3781,3.3787,3.3793,3.3857,3.387,3.3881,0,0,0,0,0,3.3378,3.345,3.3435,3.3448,3.351,3.3566,3.3573,3.3563,3.3529,3.3563,3.3568,3.354,3.3649,3.361,3.3623,3.367,3.3778,3.3786,3.3793,3.3852,3.3867,3.3881,0,0,0,0,0,0,3.3433,3.3452,3.3436,3.3517,3.354,3.3557,3.3599,3.358,3.3612,3.3605,3.359,3.3596,3.3666,3.3675,3.3632,3.3756,3.3708,3.3718,3.3748,3.3763,3.3775,3.3771,3.3579,0,0,0,0,0,3.3455,3.3499,3.3513,3.3583,3.3595,3.3596,3.3619,3.361,3.3633,3.3642,3.3651,3.3674,3.3713,3.3738,3.3775,3.3858,3.3862,3.3897,3.3909,3.3919,3.3927,3.3972,3.3988,3.382,3.382,3.382,0,0,3.3499,3.3515,3.3544,3.3594,3.3611,3.3656,3.3604,3.3654,3.3687,3.3649,3.3713,3.3721,3.3745,3.382,3.3854,3.383,3.3975,3.3928,3.3936,3.3939,3.3981,3.3997,3.4011,3.3825,3.3824,3.3823,0,0,3.3604,3.3621,3.3681,3.37,3.3726,3.3726,3.3741,3.3761,3.3766,3.383,3.3802,3.3841,3.3908,3.3926,3.3944,3.4057,3.4033,3.407,3.4132,3.4175,3.4189,3.42,3.424,3.4255,3.4078,3.4078,3.4079,0,3.3656,3.3724,3.3714,3.3766,3.3789,3.3758,3.3818,3.3836,3.3873,3.3889,3.3861,3.3946,3.396,3.4039,3.4067,3.4083,3.4098,3.4067,3.4188,3.4199,3.421,3.4248,3.4263,3.4083,3.4082,3.4082,3.4081,0,3.3786,3.3834,3.3879,3.3917,3.3945,3.4001,3.3998,3.4027,3.4016,3.4018,3.4084,3.41,3.4139,3.4157,3.4145,3.4235,3.4219,3.419,3.4141,3.423,3.4266,3.428,3.4089,3.4087,3.4086,3.4085,0,0,3.3926,3.3959,3.3975,3.3992,3.402,3.4056,3.4111,3.415,3.4175,3.4202,3.4247,3.4305,3.4279,3.43,3.429,3.4329,3.4417,3.4295,3.4295,3.4316,3.4516,3.4537,3.4554,3.4401,3.4404,3.4406,3.4514,0,3.4031,3.4127,3.412,3.421,3.4254,3.4226,3.4273,3.4295,3.4299,3.4336,3.4339,3.4381,3.4344,3.4356,3.4393,3.4398,3.4456,3.439,3.4442,3.4444,3.4436,3.4573,3.4595,3.4696,3.4528,3.453,3.4532,0,3.4167,3.42,3.4295,3.4317,3.4335,3.4378,3.4413,3.4449,3.4473,3.4473,3.4498,3.4481,3.4535,3.4486,3.4559,3.4515,3.4535,3.4541,3.4545,3.4548,3.4493,3.4579,3.4728,3.4743,3.4553,3.4551,3.455,0,3.4258,3.4327,3.4392,3.4408,3.4435,3.4466,3.4478,3.45,3.4524,3.4555,3.4571,3.4607,3.4627,3.4655,3.4649,3.4614,3.4724,3.4674,3.4725,3.4726,3.4749,3.4747,3.4902,3.4764,3.4763,3.4763,3.4763,0,3.4376,3.4436,3.4434,3.4475,3.454,3.4531,3.4595,3.4604,3.4623,3.4664,3.4641,3.468,3.467,3.4708,3.4703,3.4765,3.4774,3.4775,3.4773,3.4777,3.4777,3.479,3.4782,3.4767,3.4766,3.4765,3.4765,0,3.449,3.4491,3.4561,3.4582,3.4588,3.4635,3.4652,3.469,3.4693,3.4745,3.4756,3.476,3.4804,3.4801,3.485,3.4847,3.4923,3.4913,3.4915,3.4913,3.4964,3.4959,3.5132,3.5154,3.5002,3.5003,3.5004,0,3.4565,3.461,3.4636,3.4662,3.4677,3.472,3.4745,3.4738,3.4765,3.4796,3.483,3.4872,3.4905,3.4976,3.4982,3.5019,3.501,3.5068,3.5015,3.5018,3.501,3.5007,3.5012,3.5078,3.508,3.5081,3.5082,0,3.4698,3.4696,3.4734,3.4773,3.4804,3.4834,3.4861,3.4884,3.4879,3.491,3.4956,3.4981,3.5032,3.5074,3.5109,3.5121,3.5101,3.5099,3.5113,3.5117,3.5116,3.5117,3.4943,3.5095,3.5093,3.5092,3.5092,3.5091,3.4794,3.4832,3.4857,3.49,3.492,3.4946,3.4983,3.4991,3.5029,3.5071,3.5064,3.5114,3.5137,3.5183,3.5198,3.5237,3.5216,3.5236,3.5241,3.5246,3.5252,3.5111,3.5243,3.5243,3.5243,3.5242,3.5242,0,3.4925,3.494,3.498,3.5019,3.5053,3.5033,3.5062,3.5091,3.5137,3.516,3.5194,3.5245,3.5286,3.5296,3.5335,3.5364,3.5356,3.5374,3.5372,3.5375,3.5268,3.5252,3.538,3.538,3.538,3.538,3.538,3.538,3.4997,3.5062,3.5064,3.5138,3.5152,3.5203,3.5221,3.5245,3.5264,3.5323,3.5357,3.5364,3.5382,3.5422,3.5458,3.546,3.5475,3.5498,3.5496,3.5396,3.5382,3.5369,3.5354,3.5501,3.5501,3.5599,3.56,3.56]}]]